SIA633 RJTT-WSSS

Flight info

Callsign SIA633
Flight time N/A
Altitude 38000
Route RJTT/22 N0499F380 LAXAS4 LAXAS Y56 TOHME Y54 KOHWA Y12 LAXEL Y52 SHIMO/N0484F400 Y52 IGURU G581 HCN N892 MIGUG/K0904F400 N892 MELAS/N0489F400 N892 MABAL MABA2A WSSS/02L
Aircraft A359/H-SDE2E3GHIJ3J4J5LM1ORWXY/LB1D1

Departure

Time N/A
Airport Tokyo Haneda International Airport (RJTT)

Arrival

Time 2026-05-01 10:56
Airport Singapore Changi Airport (WSSS)
Time Latitude Longitude Altitude Speed Heading
2026-05-01 07:23 21.70966 120.61552 39981 ft 466 kts 227°
2026-05-01 07:24 21.63988 120.54272 39971 ft 465 kts 227°
2026-05-01 07:24 21.59344 120.49433 39968 ft 465 kts 227°
2026-05-01 07:25 21.54701 120.44601 39964 ft 465 kts 227°
2026-05-01 07:25 21.50054 120.39769 39976 ft 465 kts 227°
2026-05-01 07:26 21.45411 120.34946 39957 ft 464 kts 227°
2026-05-01 07:26 21.40792 120.30153 39972 ft 464 kts 227°
2026-05-01 07:27 21.36146 120.25335 39966 ft 464 kts 227°
2026-05-01 07:27 21.31503 120.20526 39949 ft 464 kts 227°
2026-05-01 07:28 21.26858 120.15718 39962 ft 464 kts 227°
2026-05-01 07:28 21.22240 120.10943 39958 ft 464 kts 227°
2026-05-01 07:29 21.17592 120.06141 39959 ft 464 kts 227°
2026-05-01 07:29 21.12943 120.01343 39957 ft 464 kts 227°
2026-05-01 07:30 21.08291 119.96546 39958 ft 464 kts 227°
2026-05-01 07:30 21.03638 119.91752 39955 ft 463 kts 227°
2026-05-01 07:31 20.99018 119.86997 39952 ft 464 kts 227°
2026-05-01 07:32 20.87689 119.74737 39953 ft 463 kts 228°
2026-05-01 07:33 20.80892 119.67392 39950 ft 463 kts 228°
2026-05-01 07:33 20.74081 119.60067 39947 ft 463 kts 228°
2026-05-01 07:34 20.67288 119.52771 39944 ft 463 kts 228°
2026-05-01 07:35 20.62740 119.47890 39943 ft 463 kts 228°
2026-05-01 07:35 20.58197 119.43019 39945 ft 463 kts 228°
2026-05-01 07:36 20.53676 119.38175 39941 ft 463 kts 228°
2026-05-01 07:36 20.49123 119.33303 39940 ft 463 kts 227°
2026-05-01 07:37 20.42302 119.26009 39937 ft 463 kts 227°
2026-05-01 07:37 20.37784 119.21184 39937 ft 463 kts 227°
2026-05-01 07:38 20.33226 119.16321 40126 ft 463 kts 227°
2026-05-01 07:38 20.28683 119.11479 40410 ft 462 kts 227°
2026-05-01 07:39 20.26412 119.09059 40547 ft 461 kts 227°
2026-05-01 07:39 20.24144 119.06644 40684 ft 461 kts 227°
2026-05-01 07:39 20.19607 119.01816 40918 ft 461 kts 227°
2026-05-01 07:40 20.17344 118.99409 41035 ft 460 kts 227°
2026-05-01 07:40 20.15076 118.96998 41156 ft 460 kts 227°
2026-05-01 07:40 20.12814 118.94595 41272 ft 460 kts 227°
2026-05-01 07:40 20.10547 118.92187 41376 ft 460 kts 227°
2026-05-01 07:41 20.08287 118.89787 41492 ft 459 kts 227°
2026-05-01 07:41 20.06789 118.88197 41544 ft 459 kts 227°
2026-05-01 07:41 20.02266 118.83401 41741 ft 459 kts 227°
2026-05-01 07:42 19.99270 118.80225 41867 ft 459 kts 227°
2026-05-01 07:42 19.95487 118.76217 42018 ft 458 kts 227°
2026-05-01 07:43 19.90239 118.70663 42218 ft 458 kts 227°
2026-05-01 07:43 19.83464 118.63501 42423 ft 458 kts 227°
2026-05-01 07:44 19.79713 118.59541 42544 ft 457 kts 227°
2026-05-01 07:44 19.75194 118.54772 42665 ft 457 kts 227°
2026-05-01 07:45 19.70678 118.50010 42786 ft 457 kts 227°
2026-05-01 07:45 19.66166 118.45258 42909 ft 457 kts 227°
2026-05-01 07:46 19.61659 118.40513 43009 ft 456 kts 227°
2026-05-01 07:47 19.54918 118.33425 43155 ft 456 kts 227°
2026-05-01 07:47 19.50401 118.28681 43246 ft 456 kts 227°
2026-05-01 07:48 19.43637 118.21584 43373 ft 455 kts 227°
2026-05-01 07:48 19.39164 118.16894 43460 ft 455 kts 227°
2026-05-01 07:49 19.32406 118.09822 43568 ft 454 kts 227°
2026-05-01 07:50 19.27931 118.05144 43630 ft 454 kts 227°
2026-05-01 07:50 19.21196 117.98101 43743 ft 453 kts 227°
2026-05-01 07:51 19.16703 117.93409 43790 ft 453 kts 227°
2026-05-01 07:52 19.10004 117.86423 43873 ft 452 kts 227°
2026-05-01 07:52 19.05516 117.81747 43917 ft 452 kts 227°
2026-05-01 07:53 18.98798 117.74757 43974 ft 451 kts 227°
2026-05-01 07:53 18.94326 117.70107 44032 ft 451 kts 227°
2026-05-01 07:55 18.83179 117.58534 44137 ft 450 kts 228°
2026-05-01 07:56 18.72034 117.46986 44335 ft 446 kts 228°
2026-05-01 07:56 18.67623 117.42425 44563 ft 441 kts 228°
2026-05-01 07:57 18.65442 117.40171 44656 ft 438 kts 228°
2026-05-01 07:57 18.61106 117.35689 44784 ft 434 kts 228°
2026-05-01 07:58 18.56832 117.31275 44915 ft 430 kts 228°
2026-05-01 07:59 18.48333 117.22507 45054 ft 423 kts 228°
2026-05-01 08:00 18.35813 117.09616 44675 ft 409 kts 228°
2026-05-01 08:01 18.29634 117.03251 42079 ft 425 kts 228°
2026-05-01 08:01 18.27496 117.01048 41158 ft 433 kts 227°
2026-05-01 08:01 18.25323 116.98812 40422 ft 441 kts 227°
2026-05-01 08:02 18.20857 116.94229 39909 ft 454 kts 227°
2026-05-01 08:03 18.14046 116.87256 39901 ft 457 kts 227°
2026-05-01 08:03 18.07205 116.80253 39898 ft 457 kts 227°
2026-05-01 08:04 17.98084 116.70923 39897 ft 457 kts 227°
2026-05-01 08:05 17.91236 116.63927 39897 ft 457 kts 227°
2026-05-01 08:06 17.84415 116.56967 39897 ft 458 kts 227°
2026-05-01 08:07 17.75269 116.47648 39897 ft 458 kts 227°
2026-05-01 08:08 17.68404 116.40662 39897 ft 458 kts 227°
2026-05-01 08:09 17.59242 116.31350 39898 ft 458 kts 227°
2026-05-01 08:09 17.54662 116.26701 39895 ft 458 kts 227°
2026-05-01 08:10 17.45516 116.17428 39895 ft 459 kts 227°
2026-05-01 08:11 17.36329 116.08125 39891 ft 459 kts 227°
2026-05-01 08:12 17.29456 116.01176 39897 ft 459 kts 227°
2026-05-01 08:13 17.22562 115.94212 39891 ft 459 kts 227°
2026-05-01 08:13 17.15658 115.87246 39893 ft 460 kts 227°
2026-05-01 08:14 17.11053 115.82604 39895 ft 460 kts 227°
2026-05-01 08:14 17.06448 115.77965 39894 ft 460 kts 227°
2026-05-01 08:15 16.99555 115.71028 39894 ft 460 kts 227°
2026-05-01 08:16 16.94933 115.66380 39895 ft 460 kts 227°
2026-05-01 08:16 16.90324 115.61749 39892 ft 460 kts 227°
2026-05-01 08:17 16.85703 115.57109 39892 ft 460 kts 227°
2026-05-01 08:17 16.81092 115.52483 39892 ft 460 kts 227°
2026-05-01 08:18 16.76511 115.47889 39892 ft 460 kts 227°
2026-05-01 08:19 16.67280 115.38643 39892 ft 460 kts 227°
2026-05-01 08:19 16.62665 115.34026 39888 ft 460 kts 227°
2026-05-01 08:20 16.58047 115.29409 39888 ft 460 kts 227°
2026-05-01 08:20 16.53420 115.24785 39892 ft 460 kts 227°
2026-05-01 08:21 16.48800 115.20172 39893 ft 460 kts 227°
2026-05-01 08:21 16.44167 115.15550 39890 ft 461 kts 227°
2026-05-01 08:22 16.39535 115.10931 39888 ft 461 kts 227°
2026-05-01 08:22 16.34928 115.06341 39887 ft 461 kts 227°
2026-05-01 08:23 16.30263 115.01696 39883 ft 461 kts 227°
2026-05-01 08:23 16.25650 114.97106 39888 ft 462 kts 227°
2026-05-01 08:24 16.21004 114.92486 39889 ft 462 kts 227°
2026-05-01 08:24 16.16354 114.87866 39889 ft 462 kts 227°
2026-05-01 08:25 16.11700 114.83245 39888 ft 463 kts 227°
2026-05-01 08:25 16.07034 114.78614 39885 ft 463 kts 227°
2026-05-01 08:26 16.02365 114.73984 39886 ft 464 kts 227°
2026-05-01 08:26 15.97692 114.69354 39885 ft 464 kts 227°
2026-05-01 08:27 15.93036 114.64744 39885 ft 465 kts 227°
2026-05-01 08:27 15.88345 114.60102 39884 ft 465 kts 227°
2026-05-01 08:28 15.83659 114.55468 39883 ft 465 kts 227°
2026-05-01 08:28 15.78960 114.50824 39882 ft 466 kts 227°
2026-05-01 08:29 15.75046 114.46959 39886 ft 466 kts 227°
2026-05-01 08:29 15.69575 114.41559 39893 ft 467 kts 227°
2026-05-01 08:30 15.64865 114.36913 39876 ft 467 kts 227°
2026-05-01 08:30 15.60139 114.32256 39878 ft 468 kts 226°
2026-05-01 08:31 15.56210 114.28385 39877 ft 468 kts 226°
2026-05-01 08:31 15.51484 114.23732 39872 ft 469 kts 226°
2026-05-01 08:32 15.46749 114.19074 39887 ft 469 kts 226°
2026-05-01 08:32 15.42006 114.14412 39886 ft 470 kts 226°
2026-05-01 08:33 15.37265 114.09755 39878 ft 470 kts 226°
2026-05-01 08:33 15.32516 114.05092 39868 ft 470 kts 226°
2026-05-01 08:34 15.27746 114.00494 39873 ft 472 kts 222°
2026-05-01 08:34 15.22496 113.96381 39884 ft 474 kts 219°
2026-05-01 08:35 15.17118 113.92385 39875 ft 475 kts 218°
2026-05-01 08:35 15.11733 113.88418 39877 ft 475 kts 218°
2026-05-01 08:36 15.06351 113.84444 39876 ft 475 kts 218°
2026-05-01 08:36 15.00971 113.80462 39882 ft 475 kts 218°
2026-05-01 08:37 14.95624 113.76505 39878 ft 475 kts 218°
2026-05-01 08:37 14.90247 113.72527 39873 ft 475 kts 218°
2026-05-01 08:38 14.84861 113.68546 39876 ft 475 kts 218°
2026-05-01 08:38 14.79471 113.64565 39876 ft 475 kts 218°
2026-05-01 08:39 14.74091 113.60593 39878 ft 476 kts 218°
2026-05-01 08:39 14.68697 113.56614 39874 ft 476 kts 218°
2026-05-01 08:40 14.60618 113.50659 39874 ft 475 kts 218°
2026-05-01 08:40 14.55267 113.46717 39873 ft 475 kts 218°
2026-05-01 08:41 14.49880 113.42752 39873 ft 475 kts 218°
2026-05-01 08:41 14.44493 113.38786 39875 ft 475 kts 218°
2026-05-01 08:42 14.39108 113.34800 39873 ft 476 kts 218°
2026-05-01 08:42 14.33720 113.30816 39871 ft 476 kts 218°
2026-05-01 08:43 14.28327 113.26835 39873 ft 477 kts 218°
2026-05-01 08:43 14.22921 113.22850 39874 ft 477 kts 218°
2026-05-01 08:44 14.17547 113.18890 39874 ft 478 kts 217°
2026-05-01 08:44 14.12132 113.14903 39872 ft 478 kts 217°
2026-05-01 08:45 14.06718 113.10918 39875 ft 479 kts 217°
2026-05-01 08:45 14.01299 113.06932 39869 ft 479 kts 217°
2026-05-01 08:46 13.95857 113.02937 39874 ft 480 kts 217°
2026-05-01 08:46 13.90418 112.98951 39868 ft 480 kts 217°
2026-05-01 08:47 13.85005 112.94984 39872 ft 481 kts 217°
2026-05-01 08:47 13.79547 112.90987 39870 ft 481 kts 217°
2026-05-01 08:48 13.74077 112.86984 39868 ft 481 kts 217°
2026-05-01 08:48 13.68656 112.83020 39871 ft 481 kts 217°
2026-05-01 08:49 13.63210 112.79039 39872 ft 480 kts 217°
2026-05-01 08:49 13.57764 112.75062 39869 ft 479 kts 217°
2026-05-01 08:50 13.52325 112.71091 39870 ft 479 kts 217°
2026-05-01 08:50 13.46893 112.67127 39868 ft 479 kts 217°
2026-05-01 08:51 13.41461 112.63166 39870 ft 479 kts 217°
2026-05-01 08:51 13.36052 112.59224 39869 ft 479 kts 217°
2026-05-01 08:52 13.30609 112.55259 39867 ft 479 kts 217°
2026-05-01 08:52 13.25154 112.51288 39865 ft 480 kts 217°
2026-05-01 08:53 13.19723 112.47336 39865 ft 481 kts 217°
2026-05-01 08:53 13.14254 112.43359 39866 ft 482 kts 217°
2026-05-01 08:54 13.08772 112.39375 39869 ft 483 kts 217°
2026-05-01 08:54 13.03318 112.35413 39870 ft 483 kts 217°
2026-05-01 08:55 12.97839 112.31436 39866 ft 483 kts 217°
2026-05-01 08:55 12.92348 112.27452 39865 ft 483 kts 217°
2026-05-01 08:56 12.86858 112.23471 39864 ft 483 kts 217°
2026-05-01 08:56 12.81358 112.19485 39864 ft 484 kts 217°
2026-05-01 08:57 12.75853 112.15497 39864 ft 484 kts 217°
2026-05-01 08:57 12.70378 112.11534 39865 ft 485 kts 217°
2026-05-01 08:58 12.64863 112.07543 39864 ft 485 kts 217°
2026-05-01 08:58 12.59346 112.03554 39864 ft 486 kts 217°
2026-05-01 08:59 12.53816 111.99557 39867 ft 486 kts 217°
2026-05-01 08:59 12.48287 111.95563 39864 ft 487 kts 217°
2026-05-01 09:00 12.42781 111.91587 39863 ft 487 kts 217°
2026-05-01 09:00 12.37229 111.87581 39864 ft 488 kts 217°
2026-05-01 09:01 12.31690 111.83573 39865 ft 488 kts 217°
2026-05-01 09:01 12.26159 111.79545 39865 ft 487 kts 217°
2026-05-01 09:02 12.20638 111.75528 39856 ft 487 kts 217°
2026-05-01 09:02 12.15151 111.71542 39861 ft 486 kts 217°
2026-05-01 09:03 12.09637 111.67541 39861 ft 485 kts 217°
2026-05-01 09:03 12.04132 111.63549 39863 ft 485 kts 217°
2026-05-01 09:04 11.98620 111.59553 39860 ft 484 kts 217°
2026-05-01 09:04 11.93124 111.55571 39860 ft 485 kts 217°
2026-05-01 09:05 11.87652 111.51609 39859 ft 485 kts 217°
2026-05-01 09:05 11.82147 111.47624 39854 ft 485 kts 217°
2026-05-01 09:06 11.76630 111.43633 39858 ft 485 kts 217°
2026-05-01 09:06 11.71150 111.39671 39855 ft 485 kts 217°
2026-05-01 09:07 11.65633 111.35685 39859 ft 485 kts 217°
2026-05-01 09:07 11.60112 111.31697 39854 ft 485 kts 217°
2026-05-01 09:08 11.54635 111.27743 39859 ft 485 kts 217°
2026-05-01 09:08 11.49118 111.23762 39856 ft 486 kts 217°
2026-05-01 09:09 11.43595 111.19777 39857 ft 486 kts 217°
2026-05-01 09:09 11.38067 111.15793 39856 ft 486 kts 217°
2026-05-01 09:10 11.32538 111.11812 39857 ft 486 kts 217°
2026-05-01 09:10 11.27028 111.07864 39860 ft 486 kts 216°
2026-05-01 09:11 11.21470 111.03920 39859 ft 486 kts 216°
2026-05-01 09:11 11.15911 110.99981 39860 ft 486 kts 216°
2026-05-01 09:12 11.10388 110.96067 39860 ft 486 kts 216°
2026-05-01 09:12 11.04826 110.92125 39860 ft 486 kts 216°
2026-05-01 09:13 10.99261 110.88181 39860 ft 486 kts 216°
2026-05-01 09:13 10.93704 110.84247 39861 ft 486 kts 216°
2026-05-01 09:14 10.88181 110.80338 39860 ft 486 kts 216°
2026-05-01 09:14 10.82627 110.76407 39860 ft 486 kts 216°
2026-05-01 09:15 10.77073 110.72480 39857 ft 486 kts 216°
2026-05-01 09:15 10.71520 110.68556 39859 ft 486 kts 216°
2026-05-01 09:16 10.65963 110.64630 39859 ft 486 kts 216°
2026-05-01 09:17 10.57655 110.58761 39860 ft 486 kts 216°
2026-05-01 09:17 10.50223 110.53515 39859 ft 486 kts 216°
2026-05-01 09:18 10.41904 110.47648 39858 ft 486 kts 216°
2026-05-01 09:19 10.33556 110.41765 39858 ft 486 kts 216°
2026-05-01 09:20 10.25205 110.35881 39856 ft 487 kts 216°
2026-05-01 09:21 10.14110 110.28060 39857 ft 487 kts 216°
2026-05-01 09:21 10.05770 110.22153 39861 ft 487 kts 216°
2026-05-01 09:22 9.94665 110.14309 39859 ft 487 kts 216°
2026-05-01 09:23 9.86314 110.08418 39855 ft 487 kts 216°
2026-05-01 09:24 9.77963 110.02527 39857 ft 487 kts 216°
2026-05-01 09:25 9.66821 109.94676 39858 ft 487 kts 216°
2026-05-01 09:26 9.58473 109.88796 39854 ft 487 kts 216°
2026-05-01 09:26 9.50118 109.82922 39853 ft 487 kts 216°
2026-05-01 09:27 9.41794 109.77073 39857 ft 487 kts 216°
2026-05-01 09:28 9.36212 109.73149 39854 ft 487 kts 216°
2026-05-01 09:28 9.30637 109.69235 39855 ft 487 kts 216°
2026-05-01 09:29 9.22315 109.63399 39850 ft 487 kts 216°
2026-05-01 09:30 9.13953 109.57537 39851 ft 487 kts 216°
2026-05-01 09:30 9.05588 109.51671 39850 ft 487 kts 216°
2026-05-01 09:31 9.00011 109.47764 39850 ft 487 kts 216°
2026-05-01 09:32 8.91635 109.41901 39853 ft 487 kts 216°
2026-05-01 09:32 8.83273 109.36050 39851 ft 487 kts 216°
2026-05-01 09:33 8.77712 109.32176 39850 ft 487 kts 216°
2026-05-01 09:34 8.69316 109.26340 39851 ft 487 kts 216°
2026-05-01 09:34 8.60959 109.20534 39851 ft 487 kts 216°
2026-05-01 09:35 8.52579 109.14713 39851 ft 487 kts 216°
2026-05-01 09:36 8.46981 109.10828 39852 ft 487 kts 216°
2026-05-01 09:36 8.41378 109.06940 39850 ft 487 kts 216°
2026-05-01 09:37 8.35779 109.03056 39852 ft 488 kts 216°
2026-05-01 09:37 8.27425 108.97263 39852 ft 487 kts 216°
2026-05-01 09:38 8.19034 108.91448 39849 ft 487 kts 215°
2026-05-01 09:39 8.10649 108.85638 39850 ft 487 kts 215°
2026-05-01 09:39 8.05057 108.81768 39850 ft 487 kts 215°
2026-05-01 09:40 7.96664 108.75958 39850 ft 487 kts 215°
2026-05-01 09:41 7.91097 108.72106 39852 ft 487 kts 215°
2026-05-01 09:41 7.82701 108.66301 39852 ft 488 kts 215°
2026-05-01 09:42 7.77103 108.62432 39851 ft 488 kts 215°
2026-05-01 09:43 7.65874 108.54673 39850 ft 488 kts 214°
2026-05-01 09:43 7.60294 108.50821 39852 ft 489 kts 214°
2026-05-01 09:44 7.51880 108.45013 39851 ft 489 kts 215°
2026-05-01 09:45 7.46262 108.41137 39849 ft 489 kts 215°
2026-05-01 09:45 7.37826 108.35318 39850 ft 489 kts 215°
2026-05-01 09:46 7.32242 108.31469 39851 ft 489 kts 215°
2026-05-01 09:46 7.26620 108.27595 39853 ft 490 kts 215°
2026-05-01 09:47 7.20988 108.23714 39854 ft 489 kts 215°
2026-05-01 09:47 7.15363 108.19839 39853 ft 489 kts 215°
2026-05-01 09:48 7.09731 108.15961 39853 ft 490 kts 215°
2026-05-01 09:48 7.04153 108.12107 39854 ft 490 kts 215°
2026-05-01 09:49 6.98547 108.08188 39852 ft 490 kts 215°
2026-05-01 09:49 6.92936 108.04264 39854 ft 490 kts 215°
2026-05-01 09:50 6.87330 108.00353 39855 ft 491 kts 215°
2026-05-01 09:50 6.82413 107.96928 39854 ft 491 kts 215°
2026-05-01 09:51 6.76821 107.93034 39854 ft 491 kts 215°
2026-05-01 09:51 6.71190 107.89116 39854 ft 492 kts 215°
2026-05-01 09:52 6.65559 107.85198 39853 ft 492 kts 215°
2026-05-01 09:52 6.59951 107.81239 39855 ft 492 kts 218°
2026-05-01 09:53 6.54619 107.76906 39851 ft 492 kts 220°
2026-05-01 09:53 6.49344 107.72517 39855 ft 492 kts 220°
2026-05-01 09:54 6.44108 107.68137 39852 ft 492 kts 220°
2026-05-01 09:54 6.38840 107.63723 39855 ft 493 kts 220°
2026-05-01 09:55 6.33580 107.59315 39852 ft 492 kts 220°
2026-05-01 09:55 6.28301 107.54893 39853 ft 492 kts 220°
2026-05-01 09:56 6.23039 107.50485 39854 ft 492 kts 220°
2026-05-01 09:56 6.17774 107.46076 39855 ft 492 kts 220°
2026-05-01 09:57 6.12540 107.41695 39851 ft 492 kts 220°
2026-05-01 09:57 6.07277 107.37289 39854 ft 492 kts 220°
2026-05-01 09:58 6.02020 107.32891 39855 ft 491 kts 220°
2026-05-01 09:58 5.96767 107.28497 39855 ft 491 kts 220°
2026-05-01 09:59 5.91516 107.24105 39855 ft 491 kts 220°
2026-05-01 09:59 5.86273 107.19721 39853 ft 490 kts 220°
2026-05-01 10:00 5.81067 107.15370 39855 ft 490 kts 220°
2026-05-01 10:00 5.75831 107.10995 39856 ft 490 kts 220°
2026-05-01 10:01 5.70590 107.06616 39856 ft 489 kts 220°
2026-05-01 10:01 5.65351 107.02240 39857 ft 489 kts 220°
2026-05-01 10:02 5.60148 106.97895 39856 ft 489 kts 220°
2026-05-01 10:02 5.54910 106.93522 39858 ft 489 kts 220°
2026-05-01 10:03 5.49658 106.89139 39856 ft 489 kts 220°
2026-05-01 10:03 5.45303 106.85505 39856 ft 490 kts 220°
2026-05-01 10:04 5.39203 106.80416 39856 ft 490 kts 219°
2026-05-01 10:04 5.34841 106.76777 39857 ft 490 kts 219°
2026-05-01 10:05 5.28714 106.71668 39857 ft 490 kts 219°
2026-05-01 10:05 5.24355 106.68034 39853 ft 490 kts 219°
2026-05-01 10:06 5.19107 106.63660 39854 ft 490 kts 219°
2026-05-01 10:06 5.13861 106.59288 39855 ft 490 kts 219°
2026-05-01 10:07 5.08615 106.54918 39854 ft 490 kts 219°
2026-05-01 10:07 5.03402 106.50575 39854 ft 489 kts 219°
2026-05-01 10:08 4.95548 106.44034 39855 ft 489 kts 219°
2026-05-01 10:09 4.90298 106.39664 39852 ft 489 kts 219°
2026-05-01 10:09 4.85061 106.35305 39854 ft 489 kts 219°
2026-05-01 10:10 4.79818 106.30942 39852 ft 490 kts 219°
2026-05-01 10:10 4.71980 106.24421 39854 ft 490 kts 219°
2026-05-01 10:11 4.66725 106.20050 39849 ft 490 kts 219°
2026-05-01 10:11 4.61466 106.15677 39851 ft 490 kts 219°
2026-05-01 10:12 4.56242 106.11333 39847 ft 490 kts 219°
2026-05-01 10:13 4.48347 106.04771 39855 ft 491 kts 219°
2026-05-01 10:13 4.43094 106.00406 39855 ft 491 kts 219°
2026-05-01 10:14 4.35216 105.93861 39856 ft 491 kts 219°
2026-05-01 10:14 4.29958 105.89493 39847 ft 491 kts 219°
2026-05-01 10:15 4.27330 105.87311 39602 ft 489 kts 219°
2026-05-01 10:15 4.24706 105.85132 39380 ft 491 kts 219°
2026-05-01 10:15 4.22072 105.82944 39157 ft 493 kts 219°
2026-05-01 10:15 4.19429 105.80750 38919 ft 493 kts 219°
2026-05-01 10:16 4.16784 105.78554 38689 ft 494 kts 219°
2026-05-01 10:16 4.14134 105.76355 38457 ft 495 kts 219°
2026-05-01 10:16 4.08825 105.71947 37929 ft 497 kts 219°
2026-05-01 10:17 4.06184 105.69756 37665 ft 497 kts 219°
2026-05-01 10:17 4.00842 105.65323 37158 ft 500 kts 219°
2026-05-01 10:17 3.98164 105.63101 36901 ft 501 kts 219°
2026-05-01 10:18 3.92785 105.58639 36425 ft 503 kts 219°
2026-05-01 10:18 3.90081 105.56396 36171 ft 504 kts 219°
2026-05-01 10:18 3.87375 105.54152 35930 ft 505 kts 219°
2026-05-01 10:19 3.84669 105.51908 35695 ft 506 kts 219°
2026-05-01 10:19 3.81992 105.49688 35461 ft 507 kts 219°
2026-05-01 10:19 3.79264 105.47426 35218 ft 508 kts 219°
2026-05-01 10:20 3.73814 105.42908 34774 ft 509 kts 219°
2026-05-01 10:20 3.71084 105.40645 34541 ft 510 kts 219°
2026-05-01 10:20 3.68352 105.38380 34313 ft 511 kts 219°
2026-05-01 10:20 3.65608 105.36105 34092 ft 512 kts 219°
2026-05-01 10:21 3.62859 105.33828 33869 ft 513 kts 219°
2026-05-01 10:21 3.57365 105.29274 33364 ft 514 kts 219°
2026-05-01 10:21 3.54611 105.26993 33114 ft 515 kts 219°
2026-05-01 10:22 3.49083 105.22401 32859 ft 516 kts 220°
2026-05-01 10:22 3.44205 105.17132 32855 ft 516 kts 231°
2026-05-01 10:23 3.41949 105.14342 32858 ft 516 kts 231°
2026-05-01 10:23 3.35209 105.06005 32857 ft 515 kts 231°
2026-05-01 10:24 3.26169 104.94860 32856 ft 515 kts 231°
2026-05-01 10:25 3.17137 104.83733 32858 ft 515 kts 231°
2026-05-01 10:26 3.12632 104.78185 32738 ft 515 kts 231°
2026-05-01 10:26 3.07931 104.72829 32337 ft 515 kts 227°
2026-05-01 10:27 3.03120 104.67588 30850 ft 510 kts 227°
2026-05-01 10:27 2.98897 104.62993 28916 ft 507 kts 227°
2026-05-01 10:28 2.96826 104.60737 28344 ft 488 kts 226°
2026-05-01 10:28 2.92227 104.55734 27045 ft 485 kts 226°
2026-05-01 10:28 2.89945 104.53251 26383 ft 484 kts 226°
2026-05-01 10:29 2.85422 104.48330 25086 ft 482 kts 226°
2026-05-01 10:29 2.83152 104.45861 24430 ft 482 kts 226°
2026-05-01 10:30 2.78623 104.40935 23064 ft 480 kts 226°
2026-05-01 10:30 2.74121 104.36039 21692 ft 474 kts 226°
2026-05-01 10:31 2.69682 104.31212 20900 ft 468 kts 226°
2026-05-01 10:31 2.65390 104.26546 20845 ft 464 kts 226°
2026-05-01 10:32 2.61299 104.22090 20837 ft 396 kts 226°
2026-05-01 10:32 2.59502 104.20133 20724 ft 370 kts 226°
2026-05-01 10:32 2.56054 104.16389 19123 ft 364 kts 226°
2026-05-01 10:33 2.52681 104.12732 17978 ft 344 kts 225°
2026-05-01 10:33 2.48726 104.10522 17247 ft 327 kts 183°
2026-05-01 10:34 2.46461 104.10432 16893 ft 325 kts 176°
2026-05-01 10:34 2.44200 104.10452 16537 ft 325 kts 176°
2026-05-01 10:34 2.41935 104.10473 16199 ft 326 kts 177°
2026-05-01 10:35 2.37338 104.10495 15745 ft 348 kts 177°
2026-05-01 10:35 2.34874 104.10502 15669 ft 349 kts 178°
2026-05-01 10:35 2.32537 104.10501 15451 ft 324 kts 177°
2026-05-01 10:35 2.30353 104.10504 15242 ft 303 kts 176°
2026-05-01 10:36 2.26314 104.10627 14783 ft 288 kts 175°
2026-05-01 10:36 2.24313 104.10696 14541 ft 287 kts 175°
2026-05-01 10:36 2.22321 104.10760 14321 ft 286 kts 175°
2026-05-01 10:37 2.20336 104.10821 14092 ft 285 kts 175°
2026-05-01 10:37 2.16377 104.10939 13640 ft 283 kts 175°
2026-05-01 10:37 2.14405 104.10997 13386 ft 282 kts 175°
2026-05-01 10:38 2.12444 104.11054 13136 ft 281 kts 175°
2026-05-01 10:38 2.10492 104.11111 12881 ft 280 kts 175°
2026-05-01 10:38 2.08544 104.11168 12637 ft 279 kts 175°
2026-05-01 10:38 2.06608 104.11225 12384 ft 278 kts 175°
2026-05-01 10:39 2.04674 104.11281 12147 ft 277 kts 175°
2026-05-01 10:39 2.02752 104.11337 11902 ft 276 kts 175°
2026-05-01 10:39 2.00839 104.11393 11662 ft 274 kts 175°
2026-05-01 10:39 1.98955 104.11448 11424 ft 273 kts 175°
2026-05-01 10:40 1.97059 104.11503 11186 ft 273 kts 175°
2026-05-01 10:40 1.95167 104.11559 10952 ft 272 kts 175°
2026-05-01 10:40 1.93275 104.11613 10716 ft 271 kts 175°
2026-05-01 10:40 1.91396 104.11668 10484 ft 270 kts 175°
2026-05-01 10:41 1.89519 104.11723 10239 ft 269 kts 175°
2026-05-01 10:41 1.87650 104.11777 10025 ft 268 kts 175°
2026-05-01 10:41 1.83942 104.11885 9552 ft 266 kts 175°
2026-05-01 10:42 1.81946 104.11944 9280 ft 265 kts 175°
2026-05-01 10:42 1.80101 104.11998 9032 ft 264 kts 175°
2026-05-01 10:42 1.78270 104.12052 8780 ft 263 kts 175°
2026-05-01 10:43 1.76442 104.12105 8536 ft 262 kts 176°
2026-05-01 10:43 1.74619 104.12158 8289 ft 261 kts 176°
2026-05-01 10:43 1.72801 104.12211 8050 ft 261 kts 176°
2026-05-01 10:43 1.70991 104.12264 7833 ft 259 kts 176°
2026-05-01 10:44 1.69186 104.12317 7696 ft 259 kts 176°
2026-05-01 10:44 1.67388 104.12369 7585 ft 259 kts 176°
2026-05-01 10:44 1.65610 104.12420 7468 ft 258 kts 176°
2026-05-01 10:44 1.63813 104.12473 7348 ft 258 kts 176°
2026-05-01 10:45 1.62022 104.12526 7236 ft 257 kts 176°
2026-05-01 10:45 1.60217 104.12578 7139 ft 265 kts 176°
2026-05-01 10:45 1.58320 104.12636 7097 ft 277 kts 176°
2026-05-01 10:45 1.56388 104.12692 7017 ft 278 kts 176°
2026-05-01 10:46 1.54449 104.12748 6901 ft 278 kts 176°
2026-05-01 10:46 1.52536 104.12803 6792 ft 278 kts 176°
2026-05-01 10:46 1.50605 104.12859 6671 ft 278 kts 176°
2026-05-01 10:46 1.48667 104.12916 6478 ft 277 kts 176°
2026-05-01 10:47 1.46740 104.12962 6258 ft 277 kts 178°
2026-05-01 10:47 1.44839 104.12655 6009 ft 278 kts 198°
2026-05-01 10:47 1.43046 104.11943 5760 ft 277 kts 202°
2026-05-01 10:47 1.41279 104.11174 5512 ft 276 kts 202°
2026-05-01 10:48 1.39513 104.10409 5275 ft 276 kts 202°
2026-05-01 10:48 1.37758 104.09655 4826 ft 272 kts 202°
2026-05-01 10:48 1.36069 104.08935 4468 ft 257 kts 202°
2026-05-01 10:48 1.34471 104.08254 3999 ft 250 kts 202°
2026-05-01 10:49 1.32867 104.07573 3338 ft 252 kts 202°
2026-05-01 10:49 1.31255 104.06890 2789 ft 249 kts 202°
2026-05-01 10:49 1.29709 104.06234 2538 ft 232 kts 202°
2026-05-01 10:49 1.28291 104.05631 2489 ft 212 kts 201°
2026-05-01 10:50 1.26956 104.05065 2500 ft 205 kts 202°
2026-05-01 10:50 1.25666 104.04519 2495 ft 199 kts 201°
2026-05-01 10:50 1.24393 104.03981 2490 ft 198 kts 201°
2026-05-01 10:50 1.23224 104.03270 2487 ft 201 kts 228°
2026-05-01 10:51 1.22797 104.02045 2484 ft 181 kts 276°
2026-05-01 10:51 1.23049 104.00835 2481 ft 176 kts 287°
2026-05-01 10:51 1.23158 103.99628 2480 ft 173 kts 272°
2026-05-01 10:51 1.23123 103.98424 2202 ft 177 kts 268°
2026-05-01 10:52 1.23192 103.97215 2007 ft 170 kts 279°
2026-05-01 10:52 1.23460 103.96081 1991 ft 167 kts 290°
2026-05-01 10:52 1.23870 103.94990 1993 ft 168 kts 294°
2026-05-01 10:52 1.24440 103.93990 1975 ft 166 kts 322°
2026-05-01 10:53 1.25475 103.93697 1992 ft 153 kts
2026-05-01 10:53 1.26442 103.94051 1818 ft 144 kts 31°
2026-05-01 10:53 1.27302 103.94520 1635 ft 138 kts 29°
2026-05-01 10:53 1.28175 103.94912 1429 ft 137 kts 22°
2026-05-01 10:54 1.28767 103.95142 1314 ft 138 kts 24°
2026-05-01 10:54 1.29646 103.95517 1127 ft 138 kts 25°
2026-05-01 10:54 1.30804 103.96018 900 ft 136 kts 25°
2026-05-01 10:54 1.31677 103.96391 744 ft 137 kts 23°
2026-05-01 10:55 1.32558 103.96757 589 ft 138 kts 22°
2026-05-01 10:55 1.33158 103.97011 466 ft 139 kts 23°
2026-05-01 10:55 1.34049 103.97389 264 ft 139 kts 22°
2026-05-01 10:55 1.35213 103.97882 50 ft 136 kts 21°
2026-05-01 10:56 1.36025 103.98219 37 ft 112 kts 22°
2026-05-01 10:56 1.36400 103.98379 39 ft 58 kts 23°
2026-05-01 10:56 1.36719 103.98513 39 ft 41 kts 22°
2026-05-01 10:56 1.36954 103.98617 38 ft 32 kts 34°
2026-05-01 10:57 1.37057 103.98722 36 ft 13 kts 51°
2026-05-01 10:57 1.37092 103.98808 37 ft 13 kts 104°
2026-05-01 10:57 1.37015 103.98832 38 ft 13 kts 197°
2026-05-01 10:57 1.36924 103.98795 38 ft 15 kts 203°
2026-05-01 10:58 1.36820 103.98751 39 ft 17 kts 203°
2026-05-01 10:58 1.36702 103.98701 39 ft 20 kts 203°
2026-05-01 10:58 1.36575 103.98648 39 ft 20 kts 202°
2026-05-01 10:58 1.36465 103.98605 39 ft 12 kts 187°
2026-05-01 10:59 1.36408 103.98640 39 ft 9 kts 129°
2026-05-01 10:59 1.36350 103.98651 39 ft 10 kts 192°
2026-05-01 10:59 1.36275 103.98620 39 ft 14 kts 204°
2026-05-01 10:59 1.36180 103.98581 39 ft 16 kts 202°
2026-05-01 11:00 1.36112 103.98561 39 ft 9 kts 181°
2026-05-01 11:00 1.36047 103.98585 39 ft 9 kts 158°
2026-05-01 11:00 1.36009 103.98557 39 ft 7 kts 261°
2026-05-01 11:00 1.35990 103.98505 38 ft 9 kts 227°
2026-05-01 11:01 1.35949 103.98511 39 ft 7 kts 142°
2026-05-01 11:01 1.35914 103.98540 39 ft 4 kts 141°
2026-05-01 11:01 1.35895 103.98556 39 ft 3 kts 140°
2026-05-01 11:01 1.35891 103.98559 39 ft 0 kts 140°
2026-05-01 11:02 1.35887 103.98562 39 ft 0 kts 140°